Change the Weather History Date:

Tuesday, September 20, 2011

  Actual Average Record
Temperature  
Mean Temperature 64 °F -  
Max Temperature 68 °F 61 °F 80 °F (2003)
Min Temperature 57 °F 48 °F 46 °F (2008)
Degree Days  
Heating Degree Days 2    
Growing Degree Days 14 (Base 50)    
Moisture  
Dew Point 56 °F    
Average Humidity 78    
Maximum Humidity 94    
Minimum Humidity 67    
Precipitation  
Precipitation 0.04 in - - ()
Sea Level Pressure  
Sea Level Pressure 30.05 in    
Wind  
Wind Speed 11 mph ()    
Max Wind Speed 20 mph    
Max Gust Speed 29 mph    
Visibility 7.4 miles    
Events Rain    
Averages and records for this station are not official NWS values.
T = Trace of Precipitation, MM = Missing Value Source: Averaged Metar Reports

Daily Weather History Graph

Daily Weather History Graph

Search for Another Location

Airport or City:

Trip Planner

Search our weather history database for the weather conditions in past years. The results will help you decide how hot, cold, wet, or windy it might be!

Date:

Astronomy

Sep. 20, 2011 Rise Set
Actual Time 6:44 AM BST 7:05 PM BST
Civil Twilight 6:10 AM BST 7:39 PM BST
Nautical Twilight 5:30 AM BST 8:18 PM BST
Astronomical Twilight 4:49 AM BST 9:00 PM BST
Moon 11:08 PM BST (9/20) 2:59 PM BST (9/20)
Length of Visible Light 13h 28m
Length of Day
12h 21m
Waning Gibbous, 51% of the Moon is Illuminated
Sep 20
Waning Gibbous
Sep 20
Last Quarter
Sep 27
New
Oct 4
First Quarter
Oct 12
Full

Hourly Weather History & Observations

Time (BST) Temp. Dew Point Humidity Pressure Visibility Wind Dir Wind Speed Gust Speed Precip Events Conditions
12:20 AM 60.8 °F 53.6 °F 77% 30.01 in 6.2 mi SW 9.2 mph - N/A   Partly Cloudy
12:50 AM 61 °F 53 °F 69% 30.03 in 19 mi SW 11.5 mph - -   Partly Cloudy
12:50 AM 60.8 °F 51.8 °F 72% 30.01 in 6.2 mi SW 11.5 mph - N/A   Scattered Clouds
1:20 AM 60.8 °F 51.8 °F 72% 30.01 in 6.2 mi SW 11.5 mph - N/A   Scattered Clouds
1:50 AM 60.8 °F 53.6 °F 77% 30.01 in 6.2 mi SW 10.4 mph - N/A   Unknown
2:20 AM 60.8 °F 53.6 °F 77% 30.04 in 6.2 mi SW 10.4 mph - N/A   Unknown
2:50 AM 60.8 °F 51.8 °F 72% 30.04 in 6.2 mi WSW 13.8 mph - N/A   Partly Cloudy
3:20 AM 59.0 °F 53.6 °F 82% 30.04 in 6.2 mi WSW 13.8 mph - N/A   Partly Cloudy
3:50 AM 59 °F 54 °F 77% 30.04 in 15 mi SW 12.7 mph - - Rain Rain
3:50 AM 59.0 °F 53.6 °F 82% 30.04 in 6.2 mi SW 11.5 mph - N/A   Scattered Clouds
4:20 AM 59.0 °F 53.6 °F 82% 30.04 in 6.2 mi SW 11.5 mph - N/A   Scattered Clouds
4:50 AM 59.0 °F 53.6 °F 82% 30.04 in 6.2 mi SW 11.5 mph - N/A   Scattered Clouds
5:20 AM 59.0 °F 53.6 °F 82% 30.04 in 6.2 mi SW 11.5 mph - N/A   Mostly Cloudy
5:50 AM 59.0 °F 53.6 °F 82% 30.04 in 6.2 mi SW 11.5 mph - N/A   Mostly Cloudy
6:20 AM 59.0 °F 53.6 °F 82% 30.04 in 6.2 mi SW 11.5 mph - N/A   Scattered Clouds
6:50 AM 60 °F 54 °F 75% 30.04 in 15 mi SSW 12.7 mph - -  
6:50 AM 60.8 °F 53.6 °F 77% 30.04 in 6.2 mi SW 11.5 mph - N/A   Mostly Cloudy
7:20 AM 60.8 °F 53.6 °F 77% 30.04 in 6.2 mi SW 12.7 mph - N/A   Mostly Cloudy
7:50 AM 60.8 °F 55.4 °F 82% 30.06 in 6.2 mi SW 10.4 mph - N/A   Mostly Cloudy
8:20 AM 60.8 °F 55.4 °F 82% 30.06 in 6.2 mi SW 12.7 mph - N/A   Mostly Cloudy
8:50 AM 62.6 °F 55.4 °F 77% 30.06 in 6.2 mi SW 10.4 mph - N/A   Mostly Cloudy
9:20 AM 62.6 °F 55.4 °F 77% 30.06 in 6.2 mi SW 10.4 mph - N/A   Mostly Cloudy
9:50 AM 63 °F 57 °F 76% 30.08 in 18 mi SW 15.0 mph - -   Overcast
9:50 AM 62.6 °F 57.2 °F 82% 30.06 in 6.2 mi SW 12.7 mph - N/A   Mostly Cloudy
10:20 AM 62.6 °F 57.2 °F 82% 30.06 in 6.2 mi SW 13.8 mph - N/A   Mostly Cloudy
10:50 AM 64.4 °F 57.2 °F 77% 30.06 in 6.2 mi SW 13.8 mph - N/A   Mostly Cloudy
11:20 AM 64.4 °F 57.2 °F 77% 30.06 in 6.2 mi SW 15.0 mph - N/A   Mostly Cloudy
11:50 AM 66.2 °F 57.2 °F 73% 30.06 in 6.2 mi SW 15.0 mph - N/A   Scattered Clouds
12:20 PM 66.2 °F 57.2 °F 73% 30.06 in 6.2 mi SW 17.3 mph 28.8 mph N/A   Mostly Cloudy
12:50 PM 66 °F 58 °F 67% 30.07 in 16 mi SSW 19.6 mph - -   Mostly Cloudy
12:50 PM 66.2 °F 57.2 °F 73% 30.06 in 6.2 mi SW 16.1 mph - N/A   Mostly Cloudy
1:20 PM 64.4 °F 57.2 °F 77% 30.06 in 6.2 mi SW 13.8 mph - N/A   Mostly Cloudy
1:50 PM 64.4 °F 57.2 °F 77% 30.06 in 6.2 mi SSW 13.8 mph - N/A   Mostly Cloudy
2:20 PM 64.4 °F 57.2 °F 77% 30.06 in 6.2 mi SW 13.8 mph - N/A   Mostly Cloudy
2:50 PM 64.4 °F 57.2 °F 77% 30.06 in 6.2 mi SW 15.0 mph - N/A   Mostly Cloudy
3:20 PM 64.4 °F 57.2 °F 77% 30.06 in 6.2 mi SSW 12.7 mph - N/A   Mostly Cloudy
3:50 PM 65 °F 58 °F 71% 30.06 in 13 mi SSW 16.1 mph - -   Overcast
3:50 PM 64.4 °F 57.2 °F 77% 30.06 in 6.2 mi SSW 13.8 mph - N/A   Mostly Cloudy
4:20 PM 64.4 °F 57.2 °F 77% 30.04 in 6.2 mi SW 12.7 mph - N/A   Mostly Cloudy
4:50 PM 64.4 °F 57.2 °F 77% 30.04 in 6.2 mi SW 12.7 mph - N/A   Mostly Cloudy
5:20 PM 62.6 °F 57.2 °F 82% 30.04 in 6.2 mi SSW 11.5 mph - N/A   Mostly Cloudy
5:50 PM 62.6 °F 57.2 °F 82% 30.04 in 6.2 mi SSW 11.5 mph - N/A   Mostly Cloudy
6:20 PM 64.4 °F 57.2 °F 77% 30.04 in 6.2 mi SSW 12.7 mph - N/A   Mostly Cloudy
6:50 PM 64 °F 56 °F 70% 30.06 in 14 mi SSW 13.8 mph - -   Overcast
6:50 PM 62.6 °F 55.4 °F 77% 30.04 in 6.2 mi SSW 11.5 mph - N/A   Mostly Cloudy
7:20 PM 62.6 °F 55.4 °F 77% 30.06 in 6.2 mi SW 12.7 mph - N/A   Mostly Cloudy
7:50 PM 62.6 °F 55.4 °F 77% 30.06 in 6.2 mi SW 12.7 mph - N/A   Mostly Cloudy
8:20 PM 64.4 °F 55.4 °F 73% 30.06 in 6.2 mi SW 13.8 mph - N/A   Mostly Cloudy
8:50 PM 62.6 °F 55.4 °F 77% 30.06 in 6.2 mi SW 15.0 mph - N/A   Mostly Cloudy
9:20 PM 62.6 °F 55.4 °F 77% 30.06 in 6.2 mi SSW 13.8 mph - N/A   Mostly Cloudy
9:50 PM 62 °F 57 °F 79% 30.06 in 14 mi SSW 16.1 mph - -   Mostly Cloudy
9:50 PM 62.6 °F 55.4 °F 77% 30.06 in 6.2 mi SW 13.8 mph - N/A   Mostly Cloudy
10:20 PM 62.6 °F 57.2 °F 82% 30.06 in 3.1 mi SW 13.8 mph - N/A   Light Drizzle
10:50 PM 60.8 °F 57.2 °F 88% 30.06 in 3.1 mi SSW 10.4 mph - N/A   Light Drizzle
11:20 PM 59.0 °F 57.2 °F 94% 30.06 in - West 8.1 mph - N/A   Light Drizzle
11:50 PM 57.2 °F 55.4 °F 94% 30.06 in 6.2 mi Variable 3.5 mph - N/A   Scattered Clouds